Current Conditions
Partly Cloudy
Conditions



Pressure
1009.92 (hPa) - 29.82 (inHG)
Visibility

10.0 (km) - 6.2 (miles)
Temperature
28  °C
Temperature
22  °C
Dewpoint
70  %
 Humidity
Wind Speed
16  km/h
9  kts
10  mph
4.5  m/s
Wind Direction
N
45°
E
90°
135°
S
180°
225°
W
270°
315°
 30°

North North
East
Airport Data
WSSL
Seletar Airport
Metar :WSSL 091200Z 03009KT 9999 FEW018 SCT280 BKN300 28/22 Q1010
Thu 9th December 20:00 pm
Raw Metar Info
Raw METAR is the most common format in the world for the transmission of observational weather data. It is highly standardized through the International Civil Aviation Organization (ICAO), which allows it to be understood throughout most of the world.
API Info
Data Provided by
https://www.checkwx.com/weather/WSSL

Aviation Weather providing METAR, TAF, AIRMET, SIGMET and OUTLOOK Weather Reports
© Info
CSS/SVG/PHP scripts were developed by weather34.com for use in the weather34 template © 2015-2021

Guide Info provided by Metar-Wikipedia